Tracking 18843 objects as of 20-November-2017
HD Live streaming from Space Station
objects crossing your sky now

FENGYUN 1C DEB

Track FENGYUN 1C DEB now!
10-day predictions


NORAD ID: 30673
Int'l Code: 1999-025AQF
Perigee: 855.5 km
Apogee: 931.7 km
Inclination: 99.3 °
Period: 102.7 minutes
Semi major axis: 7264 km
RCS: 0.0189 m2 (small)
Launch date: May 10, 1999
Source: People's Republic of China (PRC)
Launch site: Taiyaun Space Center, China (TSC)

Note: This is SATELLITE DEBRIS
aabbcc
Your satellite tracking list
Your tracking list is empty




NASA's NSSDC Master Catalog

Two Line Element Set (TLE):
1 30673U 99025AQF 17323.84530389 +.00000152 +00000-0 +12840-3 0  9996
2 30673 099.2533 330.1787 0052490 006.4943 115.0860 14.02123140552514
Source of the keplerian elements: AFSPC